Danville, ME

12:08 PM EDT on July 27, 2016 (GMT -0400)
Auburn-Lewiston Municipal

Weather History for KLEW - November, 2011

Change the Weather History Date:

Wednesday, November 16, 2011

  Actual Average Record
Temperature  
Mean Temperature 44 °F -  
Max Temperature 57 °F 42 °F 60 °F (2001)
Min Temperature 30 °F 27 °F 10 °F (1996)
Degree Days  
Heating Degree Days 22    
Moisture  
Dew Point 39 °F    
Average Humidity 87    
Maximum Humidity 100    
Minimum Humidity 58    
Precipitation  
Precipitation 0.20 in - - ()
Sea Level Pressure  
Sea Level Pressure 29.85 in    
Wind  
Wind Speed 1 mph (SSE)    
Max Wind Speed 7 mph    
Max Gust Speed -    
Visibility 8 miles    
Events      
Averages and records for this station are not official NWS values.
T = Trace of Precipitation, MM = Missing Value Source: NWS Daily Summary

Daily Weather History Graph

Daily Weather History Graph

Search for Another Location

Airport or City:

Trip Planner

Search our weather history database for the weather conditions in past years. The results will help you decide how hot, cold, wet, or windy it might be!

Date:

Astronomy

Nov. 16, 2011 Rise Set
Actual Time 6:37 AM EST 4:14 PM EST
Civil Twilight 6:05 AM EST 4:45 PM EST
Nautical Twilight 5:30 AM EST 5:20 PM EST
Astronomical Twilight 4:56 AM EST 5:54 PM EST
Moon 9:26 PM EST (11/16) 11:10 AM EST (11/16)
Length of Visible Light 10h 39m
Length of Day
9h 36m
Waning Gibbous, 70% of the Moon is Illuminated
Nov 16
Waning Gibbous
Nov 18
Last Quarter
Nov 25
New
Dec 2
First Quarter
Dec 10
Full

Hourly Weather History & Observations

Time (EST) Temp. Windchill Dew Point Humidity Pressure Visibility Wind Dir Wind Speed Gust Speed Precip Events Conditions
12:15 AM 35.6 °F - 33.8 °F 93% 29.93 in 5.0 mi Calm Calm - N/A   Clear
12:35 AM 33.8 °F - 33.8 °F 100% 29.93 in 8.0 mi Calm Calm - N/A   Clear
1:15 AM 35.6 °F - 35.6 °F 100% 29.94 in 10.0 mi Calm Calm - N/A   Clear
1:35 AM 33.8 °F - 28.4 °F 81% 29.94 in 7.0 mi Calm Calm - N/A   Clear
1:55 AM 32.0 °F - 30.2 °F 93% 29.94 in 10.0 mi Calm Calm - N/A   Clear
2:15 AM 32.0 °F - 30.2 °F 93% 29.94 in 10.0 mi Calm Calm - N/A   Clear
2:55 AM 32.0 °F - 32.0 °F 100% 29.94 in 7.0 mi Calm Calm - N/A   Clear
3:15 AM 30.2 °F - 30.2 °F 100% 29.93 in 10.0 mi Calm Calm - N/A   Clear
3:35 AM 30.2 °F - 28.4 °F 93% 29.93 in 10.0 mi Calm Calm - N/A   Clear
3:55 AM 33.8 °F - 33.8 °F 100% 29.93 in 10.0 mi Calm Calm - N/A   Clear
4:15 AM 30.2 °F - 30.2 °F 100% 29.93 in 10.0 mi Calm Calm - N/A   Clear
4:35 AM 30.2 °F - 28.4 °F 93% 29.93 in 10.0 mi Calm Calm - N/A   Clear
4:55 AM 30.2 °F - 28.4 °F 93% 29.94 in 10.0 mi Calm Calm - N/A   Clear
5:15 AM 30.2 °F - 30.2 °F 100% 29.94 in 10.0 mi Calm Calm - N/A   Clear
5:35 AM 30.2 °F - 30.2 °F 100% 29.94 in 10.0 mi Calm Calm - N/A   Clear
5:55 AM 32.0 °F - 30.2 °F 93% 29.93 in 10.0 mi Calm Calm - N/A   Clear
6:15 AM 30.2 °F - 28.4 °F 93% 29.93 in 10.0 mi Calm Calm - N/A   Clear
6:35 AM 30.2 °F - 28.4 °F 93% 29.93 in 10.0 mi Calm Calm - N/A   Clear
7:15 AM 30.2 °F - 28.4 °F 93% 29.95 in 10.0 mi Calm Calm - N/A   Clear
7:35 AM 30.2 °F - 30.2 °F 100% 29.95 in 10.0 mi Calm Calm - N/A   Clear
7:55 AM 32.0 °F - 30.2 °F 93% 29.96 in 10.0 mi Calm Calm - N/A   Clear
8:15 AM 33.8 °F 30.8 °F 32.0 °F 93% 29.95 in 10.0 mi NNE 3.5 mph - N/A   Clear
8:35 AM 35.6 °F - 33.8 °F 93% 29.95 in 10.0 mi Calm Calm - N/A   Clear
8:55 AM 37.4 °F - 35.6 °F 93% 29.95 in 10.0 mi Calm Calm - N/A   Clear
9:16 AM 39.2 °F - 37.4 °F 93% 29.94 in 10.0 mi Calm Calm - N/A   Clear
9:35 AM 42.8 °F - 37.4 °F 81% 29.95 in 10.0 mi Calm Calm - N/A   Clear
9:55 AM 44.6 °F - 39.2 °F 81% 29.96 in 10.0 mi Calm Calm - N/A   Clear
10:35 AM 51.8 °F - 42.8 °F 71% 29.93 in 10.0 mi Calm Calm - N/A   Scattered Clouds
11:35 AM 55.4 °F - 42.8 °F 63% 29.89 in 10.0 mi SSE 6.9 mph - N/A   Scattered Clouds
11:55 AM 55.4 °F - 42.8 °F 63% 29.87 in 10.0 mi SSE 5.8 mph - N/A   Overcast
12:15 PM 57.2 °F - 42.8 °F 59% 29.85 in 10.0 mi SSE 5.8 mph - N/A   Mostly Cloudy
12:55 PM 55.4 °F - 41.0 °F 58% 29.83 in 10.0 mi SSE 4.6 mph - N/A   Scattered Clouds
1:15 PM 55.4 °F - 41.0 °F 58% 29.82 in 10.0 mi SSE 4.6 mph - N/A   Mostly Cloudy
1:35 PM 55.4 °F - 42.8 °F 63% 29.82 in 10.0 mi SSE 4.6 mph - N/A   Scattered Clouds
1:55 PM 55.4 °F - 42.8 °F 63% 29.81 in 10.0 mi SSE 3.5 mph - N/A   Scattered Clouds
2:15 PM 55.4 °F - 42.8 °F 63% 29.82 in 10.0 mi SSE 3.5 mph - N/A   Mostly Cloudy
2:35 PM 55.4 °F - 44.6 °F 67% 29.81 in 10.0 mi SE 5.8 mph - N/A   Overcast
2:55 PM 55.4 °F - 42.8 °F 63% 29.80 in 10.0 mi SSE 5.8 mph - N/A   Overcast
3:15 PM 53.6 °F - 42.8 °F 67% 29.80 in 10.0 mi SSE 4.6 mph - N/A   Overcast
3:35 PM 53.6 °F - 44.6 °F 72% 29.78 in 10.0 mi SSE 6.9 mph - N/A   Mostly Cloudy
3:55 PM 51.8 °F - 44.6 °F 76% 29.79 in 10.0 mi SSE 3.5 mph - N/A   Mostly Cloudy
4:15 PM 51.8 °F - 44.6 °F 76% 29.77 in 10.0 mi SSE 5.8 mph - N/A   Overcast
4:35 PM 51.8 °F - 44.6 °F 76% 29.77 in 10.0 mi SSE 6.9 mph - N/A   Overcast
4:55 PM 50.0 °F - 46.4 °F 87% 29.78 in 10.0 mi SSE 6.9 mph - 0.01 in   Overcast
5:15 PM 48.2 °F - 46.4 °F 93% 29.77 in 10.0 mi SSE 5.8 mph - 0.02 in   Overcast
5:35 PM 48.2 °F - 46.4 °F 93% 29.77 in 10.0 mi SSE 5.8 mph - 0.03 in   Overcast
6:15 PM 48.2 °F - 46.4 °F 93% 29.76 in 8.0 mi SSE 4.6 mph - 0.02 in   Overcast
6:56 PM 48.2 °F - 48.2 °F 100% 29.74 in 5.0 mi Calm Calm - N/A   Overcast
7:35 PM 48.2 °F - 46.4 °F 93% 29.72 in 1.2 mi Calm Calm - N/A   Scattered Clouds
7:55 PM 48.2 °F - 46.4 °F 93% 29.71 in 0.8 mi Calm Calm - N/A   Mostly Cloudy
8:35 PM 48.2 °F - 48.2 °F 100% 29.72 in 1.5 mi SW 3.5 mph - N/A   Mostly Cloudy
8:55 PM 48.2 °F - 48.2 °F 100% 29.72 in 2.5 mi Calm Calm - 0.05 in   Clear
9:15 PM 48.2 °F - 48.2 °F 100% 29.72 in 3.0 mi Calm Calm - 0.03 in   Mostly Cloudy
9:55 PM 48.2 °F - 48.2 °F 100% 29.72 in 5.0 mi Calm Calm - 0.06 in   Overcast
10:15 PM 48.2 °F - 48.2 °F 100% 29.71 in 5.0 mi Calm Calm - 0.01 in   Overcast
10:35 PM 48.2 °F - 48.2 °F 100% 29.70 in 7.0 mi Calm Calm - 0.02 in   Overcast
11:15 PM 48.2 °F - 46.4 °F 93% 29.68 in 1.8 mi Calm Calm - 0.01 in   Overcast
11:35 PM 48.2 °F - 46.4 °F 93% 29.67 in 3.0 mi Calm Calm - 0.01 in   Overcast
11:55 PM 48.2 °F - 46.4 °F 93% 29.67 in 0.5 mi Calm Calm - 0.01 in   Overcast